DLH1LX LROP-EDDM

Flight info

Callsign DLH1LX
Flight time 1h 42m
Altitude 38000
Route SOKRU1K SOKRU DCT OXDOC DCT MOPUG DCT SUNIS DCT AMADI Q113 NAPSA
Aircraft A320/M-SDE2E3FGIJ1LORWXYZ/HB1

Departure

Time 2026-05-05 11:25
Airport Bucharest Henri Coandă International Airport (LROP)

Arrival

Time 2026-05-05 13:08
Airport Munich Airport (EDDM)
Time Latitude Longitude Altitude Speed Heading
2026-05-05 10:55 44.57112 26.07885 319 ft 0 kts 174°
2026-05-05 11:16 44.57113 26.07885 323 ft 1 kts 174°
2026-05-05 11:16 44.57129 26.07882 323 ft 3 kts 174°
2026-05-05 11:17 44.57149 26.07879 322 ft 3 kts 174°
2026-05-05 11:17 44.57169 26.07877 319 ft 3 kts 182°
2026-05-05 11:17 44.57189 26.07879 320 ft 3 kts 174°
2026-05-05 11:17 44.57199 26.07875 322 ft 1 kts 129°
2026-05-05 11:18 44.57194 26.07886 320 ft 3 kts 120°
2026-05-05 11:18 44.57191 26.07912 320 ft 3 kts 94°
2026-05-05 11:18 44.57192 26.07940 323 ft 3 kts 84°
2026-05-05 11:18 44.57193 26.07951 323 ft 0 kts 84°
2026-05-05 11:22 44.57193 26.07956 323 ft 3 kts 84°
2026-05-05 11:22 44.57197 26.08011 323 ft 8 kts 84°
2026-05-05 11:23 44.57206 26.08121 323 ft 14 kts 84°
2026-05-05 11:23 44.57218 26.08283 323 ft 17 kts 84°
2026-05-05 11:23 44.57230 26.08445 323 ft 16 kts 84°
2026-05-05 11:23 44.57302 26.08494 323 ft 12 kts 354°
2026-05-05 11:24 44.57384 26.08483 323 ft 12 kts 354°
2026-05-05 11:24 44.57496 26.08466 323 ft 19 kts 354°
2026-05-05 11:24 44.57588 26.08453 323 ft 20 kts 354°
2026-05-05 11:24 44.57672 26.08563 324 ft 20 kts 84°
2026-05-05 11:25 44.57701 26.08955 322 ft 75 kts 84°
2026-05-05 11:25 44.57781 26.10004 322 ft 138 kts 84°
2026-05-05 11:25 44.57895 26.11575 380 ft 181 kts 84°
2026-05-05 11:25 44.58025 26.13312 1141 ft 177 kts 85°
2026-05-05 11:26 44.58154 26.15038 1860 ft 183 kts 85°
2026-05-05 11:26 44.58296 26.16921 2259 ft 207 kts 85°
2026-05-05 11:26 44.58458 26.19031 2778 ft 225 kts 82°
2026-05-05 11:26 44.59044 26.21121 3352 ft 245 kts 49°
2026-05-05 11:27 44.60508 26.22362 4044 ft 259 kts 11°
2026-05-05 11:27 44.62311 26.22092 5078 ft 263 kts 336°
2026-05-05 11:27 44.63701 26.20420 6098 ft 270 kts 308°
2026-05-05 11:27 44.64781 26.18303 7077 ft 270 kts 318°
2026-05-05 11:28 44.66400 26.17011 7917 ft 267 kts 349°
2026-05-05 11:28 44.68241 26.16719 8839 ft 267 kts
2026-05-05 11:28 44.70107 26.16755 9766 ft 270 kts
2026-05-05 11:28 44.72010 26.16819 10451 ft 282 kts
2026-05-05 11:29 44.74055 26.16740 10766 ft 306 kts 354°
2026-05-05 11:29 44.76130 26.15824 11399 ft 321 kts 335°
2026-05-05 11:29 44.77911 26.13856 12184 ft 334 kts 315°
2026-05-05 11:29 44.79237 26.11114 12978 ft 342 kts 306°
2026-05-05 11:30 44.80479 26.08238 13781 ft 346 kts 306°
2026-05-05 11:30 44.81738 26.05334 14485 ft 349 kts 306°
2026-05-05 11:30 44.83014 26.02406 15164 ft 352 kts 306°
2026-05-05 11:30 44.84288 25.99495 15825 ft 356 kts 306°
2026-05-05 11:31 44.85614 25.96475 16529 ft 359 kts 305°
2026-05-05 11:31 44.86734 25.93285 17169 ft 368 kts 294°
2026-05-05 11:31 44.87506 25.89811 17831 ft 373 kts 290°
2026-05-05 11:31 44.88234 25.86331 18471 ft 377 kts 290°
2026-05-05 11:32 44.88975 25.82776 19048 ft 380 kts 290°
2026-05-05 11:32 44.89734 25.79139 19631 ft 382 kts 290°
2026-05-05 11:32 44.90487 25.75532 20226 ft 385 kts 290°
2026-05-05 11:32 44.91249 25.71894 20806 ft 388 kts 290°
2026-05-05 11:33 44.92005 25.68282 21362 ft 390 kts 290°
2026-05-05 11:33 44.92773 25.64597 21916 ft 393 kts 289°
2026-05-05 11:33 44.93544 25.60882 22453 ft 396 kts 289°
2026-05-05 11:33 44.94319 25.57137 22984 ft 399 kts 289°
2026-05-05 11:34 44.95099 25.53366 23510 ft 402 kts 289°
2026-05-05 11:34 44.95884 25.49564 23947 ft 405 kts 289°
2026-05-05 11:34 44.96675 25.45736 24385 ft 407 kts 289°
2026-05-05 11:34 44.97468 25.41886 24818 ft 409 kts 289°
2026-05-05 11:35 44.98264 25.38011 25240 ft 412 kts 289°
2026-05-05 11:35 44.99074 25.34065 25670 ft 414 kts 289°
2026-05-05 11:35 44.99917 25.30222 26083 ft 416 kts 291°
2026-05-05 11:35 45.00870 25.26358 26482 ft 417 kts 293°
2026-05-05 11:36 45.01887 25.22508 26907 ft 419 kts 294°
2026-05-05 11:36 45.02933 25.18658 27330 ft 420 kts 294°
2026-05-05 11:36 45.04007 25.14803 27732 ft 422 kts 294°
2026-05-05 11:36 45.05105 25.10942 28125 ft 424 kts 295°
2026-05-05 11:37 45.06212 25.07061 28516 ft 427 kts 295°
2026-05-05 11:37 45.07315 25.03159 28916 ft 429 kts 294°
2026-05-05 11:37 45.08414 24.99226 29295 ft 431 kts 294°
2026-05-05 11:37 45.09510 24.95268 29678 ft 433 kts 294°
2026-05-05 11:38 45.10607 24.91290 30025 ft 435 kts 294°
2026-05-05 11:38 45.11704 24.87299 30367 ft 436 kts 294°
2026-05-05 11:38 45.12800 24.83289 30669 ft 437 kts 294°
2026-05-05 11:38 45.13897 24.79261 30966 ft 439 kts 294°
2026-05-05 11:39 45.14999 24.75219 31261 ft 441 kts 294°
2026-05-05 11:39 45.16108 24.71164 31551 ft 442 kts 294°
2026-05-05 11:39 45.17216 24.67107 31917 ft 441 kts 294°
2026-05-05 11:39 45.18319 24.63056 32331 ft 440 kts 294°
2026-05-05 11:40 45.19415 24.59014 32711 ft 439 kts 294°
2026-05-05 11:40 45.20506 24.54981 33124 ft 437 kts 294°
2026-05-05 11:40 45.21593 24.50961 33558 ft 436 kts 294°
2026-05-05 11:40 45.22677 24.46952 33954 ft 435 kts 294°
2026-05-05 11:41 45.23756 24.42949 34298 ft 434 kts 294°
2026-05-05 11:41 45.24830 24.38953 34640 ft 433 kts 294°
2026-05-05 11:41 45.25900 24.34962 34961 ft 432 kts 294°
2026-05-05 11:41 45.26969 24.30976 35263 ft 432 kts 294°
2026-05-05 11:42 45.28035 24.26991 35555 ft 432 kts 294°
2026-05-05 11:42 45.29096 24.23010 35830 ft 431 kts 293°
2026-05-05 11:42 45.30156 24.19031 36121 ft 431 kts 293°
2026-05-05 11:42 45.31215 24.15057 36410 ft 430 kts 293°
2026-05-05 11:43 45.32272 24.11089 36665 ft 429 kts 293°
2026-05-05 11:43 45.33313 24.07175 36928 ft 429 kts 293°
2026-05-05 11:43 45.34367 24.03210 37206 ft 429 kts 293°
2026-05-05 11:43 45.35417 23.99253 37468 ft 428 kts 292°
2026-05-05 11:44 45.36465 23.95293 37716 ft 428 kts 292°
2026-05-05 11:44 45.37510 23.91331 37947 ft 428 kts 292°
2026-05-05 11:44 45.38552 23.87366 38049 ft 427 kts 292°
2026-05-05 11:45 45.40626 23.79474 38063 ft 425 kts 292°
2026-05-05 11:45 45.42690 23.71608 38064 ft 424 kts 292°
2026-05-05 11:46 45.44747 23.63736 38066 ft 424 kts 292°
2026-05-05 11:46 45.46790 23.55851 38065 ft 424 kts 292°
2026-05-05 11:47 45.48829 23.47963 38056 ft 424 kts 292°
2026-05-05 11:47 45.50887 23.40016 38061 ft 425 kts 292°
2026-05-05 11:48 45.53948 23.28156 38065 ft 425 kts 292°
2026-05-05 11:48 45.55963 23.20288 38047 ft 425 kts 291°
2026-05-05 11:49 45.57980 23.12367 38061 ft 425 kts 291°
2026-05-05 11:49 45.59994 23.04445 38057 ft 424 kts 291°
2026-05-05 11:50 45.62003 22.96524 38059 ft 424 kts 291°
2026-05-05 11:50 45.64120 22.88142 38056 ft 424 kts 291°
2026-05-05 11:51 45.66002 22.80678 38049 ft 424 kts 291°
2026-05-05 11:51 45.67992 22.72756 38052 ft 423 kts 291°
2026-05-05 11:52 45.69972 22.64827 38054 ft 423 kts 291°
2026-05-05 11:52 45.71950 22.56901 38055 ft 423 kts 291°
2026-05-05 11:53 45.73918 22.48970 38044 ft 423 kts 291°
2026-05-05 11:53 45.75881 22.41037 38054 ft 422 kts 291°
2026-05-05 11:54 45.77835 22.33105 38050 ft 422 kts 291°
2026-05-05 11:54 45.79778 22.25171 38050 ft 422 kts 291°
2026-05-05 11:55 45.81721 22.17234 38048 ft 422 kts 291°
2026-05-05 11:55 45.83666 22.09298 38044 ft 422 kts 291°
2026-05-05 11:56 45.85599 22.01358 38048 ft 422 kts 290°
2026-05-05 11:56 45.87525 21.93408 38046 ft 422 kts 290°
2026-05-05 11:57 45.89445 21.85453 38049 ft 422 kts 290°
2026-05-05 11:57 45.91355 21.77496 38028 ft 422 kts 290°
2026-05-05 11:58 45.93265 21.69534 38031 ft 421 kts 290°
2026-05-05 11:58 45.95168 21.61569 38033 ft 421 kts 290°
2026-05-05 11:59 45.97064 21.53599 38045 ft 421 kts 290°
2026-05-05 11:59 45.98963 21.45633 38037 ft 421 kts 290°
2026-05-05 12:00 46.00850 21.37661 38041 ft 421 kts 289°
2026-05-05 12:00 46.02721 21.29676 38047 ft 421 kts 289°
2026-05-05 12:01 46.04594 21.21688 38047 ft 421 kts 289°
2026-05-05 12:01 46.06459 21.13700 38037 ft 421 kts 289°
2026-05-05 12:02 46.08319 21.05701 38036 ft 421 kts 289°
2026-05-05 12:02 46.10176 20.97702 38038 ft 421 kts 289°
2026-05-05 12:03 46.12024 20.89705 38032 ft 421 kts 289°
2026-05-05 12:03 46.13872 20.81703 38023 ft 421 kts 289°
2026-05-05 12:04 46.15711 20.73700 38019 ft 420 kts 289°
2026-05-05 12:04 46.17576 20.65703 38015 ft 420 kts 289°
2026-05-05 12:05 46.19549 20.57759 38021 ft 420 kts 290°
2026-05-05 12:05 46.21541 20.49825 38009 ft 421 kts 290°
2026-05-05 12:06 46.23504 20.41868 38015 ft 420 kts 289°
2026-05-05 12:06 46.25118 20.35248 38005 ft 421 kts 289°
2026-05-05 12:07 46.27049 20.27270 38010 ft 421 kts 289°
2026-05-05 12:07 46.28983 20.19287 38009 ft 421 kts 289°
2026-05-05 12:08 46.30915 20.11304 38008 ft 421 kts 289°
2026-05-05 12:08 46.32841 20.03311 38013 ft 421 kts 289°
2026-05-05 12:09 46.34766 19.95320 38011 ft 421 kts 289°
2026-05-05 12:09 46.36680 19.87318 38009 ft 421 kts 289°
2026-05-05 12:10 46.38585 19.79308 38015 ft 421 kts 289°
2026-05-05 12:10 46.40485 19.71297 38014 ft 421 kts 289°
2026-05-05 12:11 46.42382 19.63281 38006 ft 420 kts 288°
2026-05-05 12:11 46.44272 19.55254 38005 ft 421 kts 288°
2026-05-05 12:12 46.46161 19.47218 37994 ft 421 kts 288°
2026-05-05 12:12 46.48045 19.39176 38001 ft 421 kts 288°
2026-05-05 12:13 46.49922 19.31121 38000 ft 421 kts 288°
2026-05-05 12:13 46.51792 19.23059 37997 ft 421 kts 288°
2026-05-05 12:14 46.53653 19.14995 38001 ft 421 kts 288°
2026-05-05 12:14 46.55517 19.06926 37998 ft 421 kts 288°
2026-05-05 12:15 46.57372 18.98850 38001 ft 421 kts 288°
2026-05-05 12:15 46.59210 18.90825 37996 ft 421 kts 288°
2026-05-05 12:16 46.61053 18.82741 37999 ft 421 kts 288°
2026-05-05 12:16 46.62888 18.74646 37992 ft 421 kts 288°
2026-05-05 12:17 46.64716 18.66544 37997 ft 421 kts 288°
2026-05-05 12:17 46.66541 18.58442 37993 ft 421 kts 288°
2026-05-05 12:18 46.68369 18.50335 38005 ft 421 kts 287°
2026-05-05 12:18 46.70185 18.42233 37995 ft 421 kts 287°
2026-05-05 12:19 46.71990 18.34124 37989 ft 421 kts 287°
2026-05-05 12:19 46.73785 18.26008 37993 ft 421 kts 287°
2026-05-05 12:20 46.75571 18.17894 37992 ft 420 kts 287°
2026-05-05 12:20 46.77358 18.09779 37993 ft 420 kts 287°
2026-05-05 12:21 46.79141 18.01674 37993 ft 420 kts 287°
2026-05-05 12:21 46.80916 17.93560 37990 ft 420 kts 287°
2026-05-05 12:22 46.82683 17.85446 37991 ft 419 kts 287°
2026-05-05 12:22 46.84441 17.77343 37992 ft 419 kts 286°
2026-05-05 12:23 46.86189 17.69232 37980 ft 418 kts 286°
2026-05-05 12:23 46.87933 17.61124 37981 ft 418 kts 286°
2026-05-05 12:24 46.89666 17.53034 37981 ft 416 kts 286°
2026-05-05 12:24 46.91392 17.44954 37973 ft 416 kts 286°
2026-05-05 12:25 46.93109 17.36860 37968 ft 417 kts 286°
2026-05-05 12:25 46.94820 17.28757 37973 ft 416 kts 286°
2026-05-05 12:26 46.96528 17.20669 37965 ft 416 kts 286°
2026-05-05 12:26 46.98229 17.12579 37959 ft 416 kts 286°
2026-05-05 12:27 46.99930 17.04470 37943 ft 416 kts 285°
2026-05-05 12:27 47.01622 16.96366 37950 ft 415 kts 285°
2026-05-05 12:28 47.03296 16.88277 37940 ft 414 kts 285°
2026-05-05 12:28 47.05054 16.79762 37931 ft 414 kts 285°
2026-05-05 12:29 47.06629 16.72099 37928 ft 414 kts 285°
2026-05-05 12:29 47.08287 16.64007 37933 ft 414 kts 285°
2026-05-05 12:30 47.09936 16.55925 37922 ft 413 kts 285°
2026-05-05 12:30 47.11579 16.47838 37902 ft 414 kts 285°
2026-05-05 12:31 47.13223 16.39733 37903 ft 414 kts 285°
2026-05-05 12:31 47.15135 16.31760 37903 ft 415 kts 291°
2026-05-05 12:32 47.17437 16.23985 37896 ft 415 kts 291°
2026-05-05 12:32 47.19735 16.16206 37890 ft 415 kts 292°
2026-05-05 12:33 47.22030 16.08404 37877 ft 416 kts 291°
2026-05-05 12:33 47.24319 16.00586 37882 ft 416 kts 291°
2026-05-05 12:34 47.26603 15.92773 37889 ft 415 kts 291°
2026-05-05 12:34 47.28876 15.84964 37890 ft 415 kts 291°
2026-05-05 12:35 47.31141 15.77157 37877 ft 414 kts 291°
2026-05-05 12:35 47.33398 15.69334 37862 ft 415 kts 291°
2026-05-05 12:36 47.35652 15.61498 37864 ft 415 kts 291°
2026-05-05 12:36 47.37904 15.53665 37881 ft 415 kts 290°
2026-05-05 12:37 47.40150 15.45831 37887 ft 414 kts 290°
2026-05-05 12:37 47.42394 15.37996 37872 ft 414 kts 290°
2026-05-05 12:38 47.44610 15.30203 37859 ft 415 kts 290°
2026-05-05 12:38 47.46837 15.22338 37858 ft 415 kts 290°
2026-05-05 12:39 47.49059 15.14461 37870 ft 415 kts 290°
2026-05-05 12:39 47.51284 15.06578 37871 ft 415 kts 290°
2026-05-05 12:40 47.53494 14.98692 37864 ft 415 kts 290°
2026-05-05 12:40 47.55702 14.90793 37859 ft 415 kts 290°
2026-05-05 12:41 47.57907 14.82878 37848 ft 416 kts 290°
2026-05-05 12:41 47.60111 14.74954 37858 ft 416 kts 290°
2026-05-05 12:42 47.62310 14.67015 37835 ft 417 kts 289°
2026-05-05 12:42 47.64500 14.59071 37834 ft 417 kts 290°
2026-05-05 12:43 47.66698 14.51104 37628 ft 418 kts 289°
2026-05-05 12:43 47.67797 14.47112 37324 ft 417 kts 289°
2026-05-05 12:43 47.68892 14.43121 36608 ft 418 kts 289°
2026-05-05 12:44 47.69987 14.39119 35899 ft 419 kts 289°
2026-05-05 12:44 47.71086 14.35100 35152 ft 421 kts 289°
2026-05-05 12:44 47.72182 14.31087 34669 ft 417 kts 289°
2026-05-05 12:44 47.73267 14.27110 34158 ft 414 kts 289°
2026-05-05 12:45 47.74343 14.23162 33590 ft 411 kts 289°
2026-05-05 12:45 47.75408 14.19243 33069 ft 407 kts 289°
2026-05-05 12:45 47.76460 14.15360 32560 ft 403 kts 289°
2026-05-05 12:45 47.77501 14.11511 32049 ft 400 kts 288°
2026-05-05 12:46 47.78531 14.07698 31552 ft 395 kts 289°
2026-05-05 12:46 47.79549 14.03916 31063 ft 392 kts 289°
2026-05-05 12:46 47.80557 14.00159 30569 ft 390 kts 289°
2026-05-05 12:46 47.81559 13.96436 30106 ft 386 kts 289°
2026-05-05 12:47 47.82554 13.92742 29575 ft 383 kts 289°
2026-05-05 12:47 47.83537 13.89089 29109 ft 378 kts 289°
2026-05-05 12:47 47.84505 13.85479 28665 ft 373 kts 289°
2026-05-05 12:47 47.85458 13.81908 28222 ft 369 kts 289°
2026-05-05 12:48 47.86397 13.78377 27804 ft 365 kts 289°
2026-05-05 12:48 47.87326 13.74884 27378 ft 361 kts 289°
2026-05-05 12:48 47.88245 13.71425 26965 ft 357 kts 289°
2026-05-05 12:48 47.89153 13.68001 26558 ft 354 kts 289°
2026-05-05 12:49 47.90051 13.64605 26167 ft 351 kts 288°
2026-05-05 12:49 47.90942 13.61229 25742 ft 349 kts 288°
2026-05-05 12:49 47.91829 13.57866 25343 ft 348 kts 288°
2026-05-05 12:49 47.92412 13.55648 25065 ft 347 kts 288°
2026-05-05 12:50 47.93304 13.52260 24633 ft 346 kts 288°
2026-05-05 12:50 47.94468 13.47851 24056 ft 345 kts 289°
2026-05-05 12:50 47.95344 13.44526 23615 ft 344 kts 289°
2026-05-05 12:50 47.95921 13.42326 23313 ft 344 kts 289°
2026-05-05 12:51 47.96791 13.39004 22811 ft 343 kts 288°
2026-05-05 12:51 47.97665 13.35654 22359 ft 341 kts 288°
2026-05-05 12:51 47.98523 13.32373 21929 ft 339 kts 288°
2026-05-05 12:51 47.99377 13.29105 21492 ft 338 kts 288°
2026-05-05 12:52 48.00218 13.25886 21076 ft 337 kts 288°
2026-05-05 12:52 48.01066 13.22630 20631 ft 336 kts 288°
2026-05-05 12:52 48.01912 13.19378 20202 ft 336 kts 288°
2026-05-05 12:52 48.02756 13.16131 19771 ft 335 kts 288°
2026-05-05 12:53 48.03596 13.12886 19343 ft 335 kts 288°
2026-05-05 12:53 48.04434 13.09641 18914 ft 335 kts 288°
2026-05-05 12:53 48.05273 13.06394 18497 ft 335 kts 288°
2026-05-05 12:53 48.06112 13.03140 18064 ft 335 kts 288°
2026-05-05 12:54 48.07783 12.96645 17182 ft 333 kts 288°
2026-05-05 12:54 48.08614 12.93416 16756 ft 332 kts 288°
2026-05-05 12:54 48.09255 12.90123 16341 ft 328 kts 276°
2026-05-05 12:55 48.09575 12.86760 15944 ft 326 kts 275°
2026-05-05 12:55 48.09888 12.83404 15526 ft 325 kts 275°
2026-05-05 12:55 48.10205 12.80055 15113 ft 325 kts 275°
2026-05-05 12:55 48.10523 12.76708 14707 ft 325 kts 276°
2026-05-05 12:56 48.10841 12.73369 14298 ft 324 kts 276°
2026-05-05 12:56 48.11159 12.70029 13890 ft 324 kts 276°
2026-05-05 12:56 48.11474 12.66699 13466 ft 323 kts 276°
2026-05-05 12:56 48.11785 12.63378 13036 ft 321 kts 276°
2026-05-05 12:57 48.12092 12.60075 12628 ft 319 kts 276°
2026-05-05 12:57 48.12399 12.56751 12213 ft 317 kts 276°
2026-05-05 12:57 48.12699 12.53503 11925 ft 311 kts 275°
2026-05-05 12:57 48.12986 12.50393 11764 ft 302 kts 275°
2026-05-05 12:58 48.13270 12.47300 11445 ft 299 kts 275°
2026-05-05 12:58 48.13548 12.44234 11082 ft 297 kts 275°
2026-05-05 12:58 48.13825 12.41181 10727 ft 295 kts 275°
2026-05-05 12:58 48.14100 12.38141 10377 ft 294 kts 275°
2026-05-05 12:59 48.14348 12.35116 10023 ft 291 kts 270°
2026-05-05 12:59 48.14251 12.32112 9654 ft 288 kts 261°
2026-05-05 12:59 48.14028 12.29138 9250 ft 287 kts 261°
2026-05-05 13:00 48.14854 12.23498 8587 ft 288 kts 307°
2026-05-05 13:00 48.16408 12.21629 8228 ft 290 kts 334°
2026-05-05 13:01 48.22365 12.20225 7185 ft 288 kts 353°
2026-05-05 13:01 48.24352 12.19920 6852 ft 286 kts 354°
2026-05-05 13:01 48.26437 12.19590 6487 ft 284 kts 354°
2026-05-05 13:01 48.28287 12.19295 6170 ft 282 kts 354°
2026-05-05 13:02 48.30233 12.18981 5814 ft 281 kts 353°
2026-05-05 13:02 48.32171 12.18665 5469 ft 279 kts 353°
2026-05-05 13:02 48.34096 12.18339 5120 ft 278 kts 351°
2026-05-05 13:02 48.35859 12.17358 4982 ft 264 kts 328°
2026-05-05 13:03 48.37220 12.15673 4990 ft 245 kts 310°
2026-05-05 13:03 48.38135 12.13625 4992 ft 230 kts 293°
2026-05-05 13:03 48.38629 12.11371 5002 ft 225 kts 278°
2026-05-05 13:03 48.38705 12.09047 4878 ft 222 kts 263°
2026-05-05 13:04 48.38534 12.06745 4629 ft 221 kts 263°
2026-05-05 13:04 48.38364 12.04452 4333 ft 219 kts 263°
2026-05-05 13:04 48.38198 12.02214 4058 ft 212 kts 263°
2026-05-05 13:04 48.38037 12.00048 3811 ft 204 kts 263°
2026-05-05 13:05 48.37881 11.97959 3535 ft 198 kts 263°
2026-05-05 13:05 48.37730 11.95942 3276 ft 189 kts 263°
2026-05-05 13:05 48.37589 11.94061 3055 ft 172 kts 263°
2026-05-05 13:05 48.37463 11.92380 2837 ft 155 kts 263°
2026-05-05 13:06 48.37346 11.90831 2635 ft 145 kts 263°
2026-05-05 13:06 48.37234 11.89347 2448 ft 142 kts 263°
2026-05-05 13:06 48.37123 11.87879 2255 ft 141 kts 264°
2026-05-05 13:06 48.37008 11.86403 2023 ft 143 kts 264°
2026-05-05 13:07 48.36856 11.84922 1810 ft 145 kts 260°
2026-05-05 13:07 48.36778 11.83420 1636 ft 144 kts 269°
2026-05-05 13:07 48.36674 11.81927 1503 ft 143 kts 264°
2026-05-05 13:07 48.36570 11.80580 1485 ft 107 kts 263°
2026-05-05 13:08 48.36496 11.79838 1481 ft 52 kts 249°
2026-05-05 13:08 48.36347 11.79493 1478 ft 34 kts 234°
2026-05-05 13:08 48.36224 11.79306 1481 ft 22 kts 189°
2026-05-05 13:08 48.36065 11.79320 1485 ft 24 kts 173°
2026-05-05 13:09 48.35911 11.79366 1480 ft 14 kts 154°
2026-05-05 13:09 48.35814 11.79392 1477 ft 14 kts 174°
2026-05-05 13:09 48.35724 11.79407 1485 ft 12 kts 173°
2026-05-05 13:09 48.35643 11.79421 1481 ft 11 kts 173°
2026-05-05 13:10 48.35574 11.79420 1482 ft 9 kts 217°
2026-05-05 13:10 48.35563 11.79339 1481 ft 7 kts 263°
2026-05-05 13:10 48.35559 11.79286 1475 ft 0 kts 263°
2026-05-05 13:10 48.35559 11.79283 1472 ft 0 kts 263°